GFSGBSN_850_dewp_135.txt.gz
Dewpoint
9 9 9 10 10 9 9 10 10 10 10 9 8 8 7 7 2 -7 -20 -30 -32 -33 -33 -32 -30 -30 -28 -10 -15 -9 -21 -14 -10 -9 -10 -12 -13 -14 -16 -17 -16 -14 -16 -16 -16 -15 -16
1 4 7 9 9 9 9 9 9 9 10 10 9 8 8 7 5 -1 -12 -28 -28 -32 -33 -31 -29 -28 -9 -14 -15 -13 -11 -9 -9 -9 -9 -9 -10 -10 -13 -13 -13 -14 -12 -14 -15 -15 -15
-0 0 0 2 7 9 9 9 9 8 9 9 10 9 9 8 7 2 -9 -18 -22 -32 -32 -30 -26 -25 -7 -13 -11 -8 -11 -8 -8 -9 -9 -8 -8 -8 -8 -11 -9 -10 -10 -13 -16 -16 -17
-7 -2 -1 -1 -1 1 6 8 7 7 9 9 9 9 9 9 8 3 -9 -13 -22 -32 -31 -28 -24 -12 -8 -10 -9 -9 -8 -8 -9 -8 -8 -8 -7 -7 -8 -9 -10 -10 -11 -11 -15 -16 -16
-5 -13 -11 -8 -4 -2 -1 2 7 8 8 7 9 9 9 9 8 5 -11 -16 -27 -31 -28 -22 -17 -4 -10 -11 -10 -9 -8 -10 -9 -7 -6 -7 -7 -7 -7 -6 -10 -12 -11 -12 -15 -16 -14
-8 1 3 -3 -6 -3 -3 -1 -1 5 7 6 8 8 8 8 8 6 -16 -26 -27 -25 -21 -12 -5 -6 -9 -12 -10 -10 -9 -9 -8 -7 -6 -5 -6 -7 -8 -8 -8 -10 -11 -14 -14 -16 -14
-14 -12 -2 1 -2 -9 -4 -2 -2 -2 -0 7 7 6 8 8 8 7 -9 -18 -13 -1 -3 -9 -10 -13 -11 -10 -10 -10 -9 -9 -8 -7 -7 -7 -8 -9 -8 -8 -9 -10 -11 -11 -13 -12 -8
-11 -9 -8 -6 -7 -10 -6 -3 -2 -2 -1 1 5 7 7 7 7 4 -14 -2 -8 -6 -6 -7 -10 -8 -10 -11 -11 -10 -10 -8 -7 -8 -8 -6 -5 -7 -8 -8 -8 -8 -8 -9 -10 -9 -9
-2 -6 -5 0 1 -5 -8 -5 -3 -2 -2 2 4 6 7 7 7 0 -9 -9 -8 -7 -9 -9 -10 -12 -9 -10 -13 -11 -10 -9 -9 -8 -7 -7 -8 -6 -7 -8 -7 -7 -7 -8 -8 -8 -8
-2 -10 -8 -6 -3 -3 -5 -3 -5 -4 -2 -0 5 6 6 7 5 -2 -6 -3 -7 -11 -1 -6 -11 -12 -9 -11 -11 -10 -9 -8 -8 -7 -7 -6 -6 -7 -7 -7 -7 -5 -8 -6 -6 -4 -2
-2 -6 -6 -5 -5 -5 -7 -6 -5 -3 -4 -1 5 5 6 4 5 1 2 -6 -6 -6 5 -6 -14 -10 -10 -12 -10 -9 -8 -8 -8 -7 -7 -3 -5 -5 -2 -4 -6 -6 -6 -4 -3 -1 -1
-3 -4 -4 -3 -2 -2 -7 -8 -5 -3 -2 0 5 5 6 5 4 3 -1 -5 -5 2 5 -7 -8 -8 -9 -11 -10 -7 -7 -7 -7 -7 -8 -8 -9 -7 -6 -6 -5 -5 -2 -2 -2 -1 2
-4 -4 -4 -3 -2 -4 -7 -5 -3 -2 -1 1 5 5 4 5 2 0 -4 -5 -0 3 -5 -7 -7 -9 -10 -9 -10 -9 -8 -7 -7 -6 -6 -10 -8 -6 -5 -4 -4 -2 -1 -1 -1 3 -1
-3 -4 -4 -1 -1 -3 -4 -4 -0 -0 4 4 5 5 4 4 1 -3 -4 -0 2 -1 -4 -11 -9 -9 -8 -9 -8 -8 -8 -7 -7 -8 -9 -11 -3 -6 -5 -3 -1 0 -1 0 2 -2 -2
-3 -2 -2 1 -0 -3 -2 5 5 6 4 5 3 2 4 -0 -1 -4 -2 2 2 -0 -9 -10 -9 -7 -7 -8 -6 -7 -6 -8 -7 -9 -7 -10 -7 -9 -10 -6 -2 3 3 -2 2 -0 1
-3 -2 -1 0 -0 -3 5 7 3 5 5 3 1 2 -0 -1 -3 -2 1 2 -0 -6 -11 -10 -7 -8 -5 -7 -4 4 -3 -7 -6 -9 -10 -7 -5 -11 -8 -5 -3 -1 -3 2 3 5 3
-2 -2 -1 0 2 2 5 5 4 4 3 2 1 -1 -0 -0 1 1 3 1 -2 -9 -12 -9 -8 -8 -7 -7 -8 -2 -6 -5 -7 -9 -9 -6 -4 -5 -8 -4 -4 -4 1 0 -1 0 3
-3 -3 -1 1 1 2 4 6 5 3 2 2 -0 -0 -0 0 1 1 2 -1 -9 -11 -11 -10 -10 -10 -8 -8 -8 -8 -5 -5 -8 -10 -5 -4 -2 -3 -7 -7 -5 -4 -2 -2 5 2 6
-1 -3 -2 -0 0 0 -0 -0 -0 1 2 1 -1 -0 -1 0 2 2 -2 -5 -10 -10 -9 -9 -8 -9 -9 -8 -7 -9 -6 -6 -7 -8 -4 -3 -1 0 -2 -3 -4 -2 -1 -2 -1 2 4
-1 -3 -2 -1 -0 -0 -1 -1 -1 -0 0 -1 -1 1 -0 0 2 -1 -2 -3 -7 -8 -9 -9 -8 -8 -8 -8 -8 -7 -4 -5 -7 -7 -5 -3 -2 0 -1 2 0 -1 -2 -2 -0 5 7
-1 -2 -2 -2 -1 -1 -0 -1 -1 -0 -0 1 1 0 -0 1 3 -1 -1 -7 -6 -5 -7 -8 -8 -9 -8 -6 -6 -6 -6 -5 -7 -4 -5 -2 -2 -3 -4 -6 -2 1 -0 -1 2 3 2
-3 -2 -2 -2 -2 -2 -1 -1 -0 -1 -0 1 0 -0 -2 -1 -2 -2 -3 -6 -6 -8 -7 -8 -8 -9 -10 -7 -9 -7 -8 -7 -4 -4 -2 -3 -1 -3 -3 -4 2 1 -0 -3 -2 -0 1
-4 -2 -3 -2 -2 -2 -2 -1 -1 -0 -0 0 -1 -3 -3 -2 -1 -0 -3 -7 -7 -6 -6 -8 -8 -8 -7 -9 -10 -10 -9 -6 -5 -3 -2 -1 -1 -2 -1 -2 4 4 2 1 -1 -1 -1
-4 -4 -4 -2 -2 -2 -2 -1 -1 -0 -1 1 -2 -1 -2 -0 -2 -4 -7 -6 -7 -7 -6 -10 -9 -8 -6 -5 -5 -5 -5 -5 -5 -4 -3 -1 -1 -1 -2 2 5 2 -0 -1 2 -1 0
-2 -2 -4 -3 -3 -2 -2 -1 -1 -0 -0 1 -1 0 -5 1 -6 -6 -6 -7 -7 -7 -8 -8 -5 -5 -5 -6 -4 -3 -2 -2 -2 -3 -2 -3 -2 1 -0 -2 2 -1 -3 -1 1 0 -4
-1 -2 -3 -4 -5 -5 -3 -2 -2 0 -1 -2 -5 -3 -3 -5 -5 -8 -7 -7 -4 -5 -4 -2 -2 -3 -4 -4 -3 -3 -2 -3 -0 -0 -3 -3 -2 -0 -1 -1 2 1 -4 -3 -2 3 -4
-2 -2 -3 -5 -9 -8 -7 -5 -3 -0 -2 -3 -2 -1 -0 -2 -5 -8 -6 -5 -6 -5 -5 -3 -3 -3 -3 -3 -0 -2 -2 -5 0 2 1 0 -1 1 -1 -2 1 -4 -4 -2 1 1 -4
-1 -2 -3 -5 -8 -6 -5 -4 -1 -1 -2 -4 -4 -1 -0 -1 -1 -2 -4 -4 -6 -7 -3 -4 -4 -4 -4 -1 -3 -3 -2 -2 -3 -3 -0 -1 -0 0 -2 -2 1 -4 -4 -1 -1 -3 -4
-2 -3 -4 -5 -8 -7 -4 -2 -1 0 -2 -4 -1 -3 -1 -1 0 -0 -3 -2 -2 -3 -4 -3 -4 -6 -6 -2 -2 -4 -1 -1 -4 0 -3 1 -1 1 -1 2 -3 -3 -3 -3 -4 -4 -4

GFSGBSN_850_dewp_138.txt.gz
Dewpoint
6 8 9 9 10 9 8 10 10 9 10 10 10 10 8 8 7 6 0 -10 -23 -28 -31 -33 -32 -30 -30 -5 -12 -10 -17 -27 -17 -10 -11 -11 -13 -13 -13 -16 -16 -15 -16 -16 -16 -16 -17
1 1 4 8 9 9 9 9 9 9 9 9 9 9 10 9 8 7 2 -7 -17 -21 -27 -32 -31 -29 -9 -7 -12 -12 -18 -17 -10 -10 -10 -10 -10 -10 -12 -13 -13 -15 -14 -13 -14 -15 -16
-3 -1 -0 0 2 5 8 8 8 9 9 9 8 9 9 9 9 8 6 -3 -15 -15 -25 -32 -30 -26 -3 -8 -13 -9 -13 -9 -9 -10 -10 -9 -9 -9 -10 -10 -11 -9 -9 -14 -14 -15 -16
-14 -8 -5 -3 -1 -0 -0 3 8 9 9 9 8 9 9 9 9 9 8 -1 -10 -13 -28 -31 -27 -23 -3 -9 -11 -9 -8 -9 -9 -9 -9 -9 -8 -8 -9 -10 -10 -11 -11 -9 -13 -16 -16
-20 -20 -17 -15 -14 -8 -3 -1 -1 1 6 7 6 8 8 8 8 8 8 -3 -12 -14 -29 -29 -22 -16 -8 -8 -10 -10 -9 -10 -10 -9 -7 -8 -8 -8 -8 -6 -7 -9 -8 -10 -12 -16 -15
-10 -13 -13 -9 -5 -11 -14 -11 -3 -2 -1 3 7 7 8 7 8 8 8 -0 -14 -18 -12 -19 -8 -5 -7 -9 -12 -10 -9 -9 -10 -8 -7 -5 -6 -6 -7 -7 -5 -7 -9 -11 -13 -16 -16
-16 -18 -19 -17 -9 -8 -7 -13 -7 -4 -2 -1 1 6 7 7 8 7 7 -8 -8 -0 -3 -5 -7 -10 -11 -11 -10 -11 -11 -10 -10 -9 -7 -8 -5 -7 -9 -7 -8 -9 -12 -12 -14 -15 -11
-13 -14 -12 -14 -15 -13 -11 -12 -10 -4 -2 -2 -1 -1 1 5 7 7 6 -4 -4 -2 -3 -3 -6 -8 -12 -10 -11 -13 -11 -10 -9 -7 -8 -7 -6 -7 -8 -9 -10 -10 -9 -9 -11 -12 -11
-0 -2 -6 -13 -17 -16 -12 -10 -13 -6 -3 -2 -1 -1 4 6 6 5 6 -2 -2 -6 -1 -1 -6 -9 -10 -11 -12 -12 -11 -11 -10 -8 -9 -8 -8 -7 -7 -9 -10 -9 -8 -9 -9 -10 -10
-1 -7 -16 -19 -16 -12 -9 -3 -11 -13 -6 -3 -2 1 4 5 5 4 4 -2 1 -1 3 2 -1 -7 -13 -11 -12 -14 -11 -11 -10 -8 -10 -8 -8 -7 -9 -9 -10 -7 -10 -8 -7 -6 -4
-5 -14 -17 -16 -14 -12 -11 -11 -9 -10 -10 -4 -2 2 4 4 4 3 3 3 -2 -1 7 0 -7 -10 -12 -12 -12 -13 -11 -9 -8 -8 -7 -5 -6 -6 -5 -6 -7 -6 -8 -6 -5 -4 -2
-3 -7 -8 -10 -10 -10 -10 -10 -9 -10 -8 -4 -1 1 4 5 4 3 1 1 -5 3 5 1 -7 -10 -9 -11 -11 -10 -10 -9 -8 -9 -8 -8 -10 -9 -8 -7 -7 -7 -4 -3 -3 -2 3
-3 -4 -5 -6 -8 -9 -8 -9 -10 -11 -6 -2 -1 1 4 4 3 2 1 -2 2 4 -0 -0 -8 -8 -9 -8 -10 -8 -7 -7 -7 -7 -6 -9 -10 -10 -8 -5 -6 -4 -2 -0 -1 3 4
-4 -4 -5 -6 -7 -8 -8 -10 -14 -11 -4 -2 -1 2 4 4 4 2 -1 1 4 1 1 -4 -6 -6 -6 -8 -10 -10 -7 -6 -9 -8 -7 -7 -5 -7 -6 -4 -4 -2 -2 -0 3 -1 -1
-4 -4 -5 -6 -7 -7 -8 -10 -11 -5 -3 -1 3 3 3 3 4 0 1 4 4 2 -2 -3 -7 -5 -6 -9 -6 -8 -5 -7 -8 -9 -9 -9 -8 -8 -6 -10 -4 0 1 -1 -0 -1 2
-3 -4 -5 -5 -5 -4 -4 -6 -4 -2 2 6 3 2 2 3 1 1 3 4 2 -0 -1 -4 -6 -7 -5 -7 -6 3 -5 -8 -8 -11 -9 -8 -6 -9 -12 -10 -7 -4 -5 -1 2 3 0
-3 -4 -4 -5 -2 -1 -3 -4 0 4 6 4 2 1 1 2 -0 1 3 3 1 -2 -4 -2 -3 -6 -6 -6 -6 -2 -4 -7 -7 -9 -11 -8 -5 -7 -8 -7 -6 -1 -1 0 -2 -1 0
-3 -3 -3 -3 -0 1 0 3 6 5 5 2 1 0 1 1 0 1 2 -0 -0 -2 -6 -8 -7 -5 -5 -5 -5 -4 -6 -6 -8 -10 -8 -6 -5 -3 -6 -7 -7 -6 -3 -4 1 -0 2
-2 -2 -3 -2 0 1 2 2 2 2 2 2 0 1 1 0 2 1 0 0 -1 -1 -5 -7 -5 -4 -5 -4 -5 -6 -8 -7 -9 -9 -5 -4 -2 0 -5 -6 -7 -4 -2 -4 -3 -1 2
-2 -1 -3 -2 -0 0 -0 -0 -1 -0 0 -0 -1 0 -0 0 1 -1 1 2 1 -5 -8 -6 -7 -8 -7 -6 -8 -6 -4 -5 -8 -8 -4 -4 -2 0 2 3 0 2 -1 -3 -2 2 4
-2 -1 -3 -3 -0 -1 -0 -0 -0 -0 -0 1 1 0 -0 1 2 1 0 3 -3 -5 -9 -9 -7 -7 -6 -5 -7 -7 -4 -4 -8 -5 -5 -2 -0 -3 -5 -7 -2 -1 -3 -1 -0 -0 2
-1 -1 -3 -2 -2 -0 -0 -0 -0 0 0 0 0 -0 -2 -2 0 1 2 -1 -5 -7 -7 -7 -6 -7 -7 -5 -7 -5 -4 -5 -7 -4 -4 -3 1 -4 -4 -6 2 0 -2 -3 -2 -1 0
-2 -2 -3 -2 -2 -2 -1 0 -0 -0 0 0 1 -1 -2 -1 1 2 2 -1 -3 -4 -5 -7 -8 -7 -6 -8 -9 -9 -8 -9 -6 -4 -1 -1 1 -2 0 -1 3 3 3 1 -0 -1 -0
-2 -3 -2 -2 -2 -2 -1 -1 -1 -0 -0 0 1 1 1 2 1 2 -2 -4 -3 -6 -5 -9 -9 -7 -6 -5 -6 -6 -6 -5 -5 -3 -4 -2 -2 -2 3 2 3 2 -1 -0 2 -0 0
-3 -4 -4 -2 -2 -2 -2 -1 -1 -0 -0 1 0 1 1 3 2 -1 -5 -5 -6 -6 -6 -7 -7 -5 -5 -5 -3 -3 -2 -3 -3 -4 -3 -3 -2 1 1 1 2 -1 -1 -1 -1 0 -3
-1 -3 -3 -3 -2 -2 -2 -1 -1 -0 -0 1 1 1 1 1 1 -3 -2 -3 -1 -3 -3 -1 -3 -5 -6 -4 -2 -5 -3 -5 -2 -3 -4 -4 -2 -0 0 -0 2 0 -4 -4 -3 2 -4
-1 -2 -4 -3 -4 -5 -3 -1 -0 -0 -1 1 1 2 1 -0 -2 -3 -3 -1 -4 -3 -1 -2 -2 -3 -4 -0 0 -0 -1 -6 -1 2 0 1 0 1 1 -1 1 -4 -4 -3 0 1 -4
-2 -2 -3 -4 -6 -8 -4 -2 -1 -0 -1 0 -1 2 1 1 1 -3 -3 -4 -5 -4 -1 -3 -3 -3 -1 0 -1 -1 -0 -3 -0 -2 -1 0 0 1 0 -1 3 -5 -2 -0 -0 -3 -4
-2 -1 -3 -5 -8 -5 -2 -1 -1 -1 -2 -1 -1 1 1 1 1 -1 -1 -1 -2 -3 -4 -5 -4 -5 -4 0 -1 -0 0 0 -0 3 -4 2 -1 2 1 2 -2 -2 -2 -3 -3 -4 -4

GFSGBSN_850_dewp_141.txt.gz
Dewpoint
7 7 8 9 9 10 10 10 9 9 10 10 10 10 10 10 9 8 7 4 -5 -15 -14 -17 -31 -32 -31 -4 -7 -11 -12 -21 -20 -13 -10 -11 -11 -11 -11 -12 -15 -15 -15 -15 -14 -13 -14
0 1 3 5 7 8 9 9 9 9 9 9 9 9 9 9 9 9 8 7 0 -9 -14 -15 -30 -31 -25 -1 -11 -13 -14 -22 -13 -10 -10 -10 -9 -9 -10 -11 -9 -12 -11 -11 -11 -12 -13
-4 -2 -1 0 1 1 4 7 7 7 8 9 9 9 9 9 9 9 9 8 5 -4 -11 -23 -30 -30 -23 -23 -12 -12 -15 -11 -9 -10 -10 -9 -9 -9 -9 -9 -10 -10 -8 -9 -11 -13 -13
-13 -11 -7 -4 -3 -1 -0 0 2 5 7 8 8 9 9 8 9 9 9 9 7 0 -9 -24 -27 -24 -18 -11 -12 -11 -9 -9 -9 -10 -9 -9 -9 -8 -8 -9 -7 -10 -11 -9 -11 -14 -16
-19 -19 -19 -16 -14 -10 -7 -3 -1 -0 0 5 7 7 8 8 8 8 8 8 8 2 -12 -23 -21 -8 -7 -8 -9 -11 -12 -9 -9 -9 -9 -7 -9 -8 -7 -6 -5 -6 -6 -8 -10 -15 -14
-11 -17 -19 -20 -16 -16 -15 -16 -14 -6 -2 -1 -0 2 4 6 8 7 8 8 7 7 -10 -12 -13 -3 -4 -7 -9 -12 -10 -9 -10 -10 -8 -7 -6 -5 -5 -5 -4 -6 -8 -11 -13 -16 -14
-9 -15 -20 -21 -21 -19 -18 -17 -17 -16 -9 -3 -1 -1 2 5 7 7 7 7 6 4 -1 -1 -3 -8 -11 -10 -11 -10 -10 -10 -10 -10 -7 -7 -3 -3 -5 -7 -8 -9 -10 -11 -12 -13 -10
-11 -18 -22 -19 -21 -21 -20 -19 -16 -18 -11 -4 -2 -2 -1 -1 5 7 7 6 4 1 0 -2 -3 -3 -7 -11 -10 -10 -11 -10 -9 -7 -7 -6 -3 -5 -7 -8 -9 -9 -7 -7 -9 -10 -10
-5 -3 -9 -19 -20 -22 -21 -20 -18 -18 -10 -4 -2 -2 -1 2 4 5 5 5 4 0 -1 1 2 -3 -4 -9 -10 -11 -12 -10 -9 -6 -5 -5 -5 -6 -6 -6 -7 -9 -7 -7 -7 -8 -9
0 -1 -6 -12 -19 -21 -21 -18 -13 -9 -16 -6 -3 -1 2 4 4 4 5 4 3 -3 4 2 1 -2 -5 -10 -10 -11 -12 -11 -10 -8 -8 -6 -9 -7 -7 -7 -9 -7 -8 -7 -6 -5 -3
0 -3 -9 -12 -16 -17 -17 -14 -13 -11 -8 -10 -5 -1 2 4 4 4 3 5 2 2 6 -0 0 -3 -4 -10 -10 -11 -12 -11 -9 -7 -7 -3 -5 -5 -4 -6 -8 -5 -6 -5 -4 -3 -3
-1 -3 -4 -9 -15 -16 -14 -11 -10 -10 -8 -7 -5 -1 2 3 3 3 3 4 -1 4 6 1 -4 -7 -9 -10 -10 -13 -11 -10 -10 -8 -9 -6 -7 -7 -6 -7 -7 -7 -5 -3 -3 -1 3
-4 -4 -3 -6 -10 -11 -12 -12 -10 -9 -8 -6 -3 -0 2 2 3 3 2 -2 3 5 -2 -0 -4 -6 -8 -8 -8 -9 -8 -7 -5 -3 -3 -6 -6 -9 -10 -5 -6 -5 -2 2 3 4 4
-4 -3 -5 -5 -5 -7 -9 -11 -11 -10 -9 -4 -0 0 1 1 3 3 0 1 4 1 0 -3 -6 -6 -6 -7 -7 -8 -8 -5 -7 -7 -7 -5 -2 -8 -6 -3 -3 -2 -1 2 4 4 3
-4 -5 -5 -5 -5 -6 -8 -10 -10 -11 -10 -5 0 1 1 2 3 2 1 3 0 0 -1 -1 -6 -5 -6 -7 -5 -7 -4 -4 -6 -8 -3 -4 -3 -8 -6 -7 -6 -0 2 -0 1 1 3
-3 -4 -4 -4 -4 -5 -6 -7 -9 -12 -11 -2 1 2 2 2 3 1 2 2 -0 -1 -3 -2 0 -4 -2 -5 -5 -3 -3 -6 -6 -8 -7 -4 -1 -4 -8 -11 -9 -4 -4 -0 3 6 3
-3 -4 -3 -3 -4 -4 -1 0 -10 -14 -8 1 2 3 3 3 2 2 3 2 -1 -1 0 1 1 -2 -4 -5 -5 1 -1 -4 -7 -9 -10 -7 -4 -4 -6 -5 -6 -3 0 1 0 1 3
-3 -3 -3 -3 -4 -1 1 1 2 -2 5 4 3 2 2 3 1 1 3 -0 -1 -1 -1 -1 2 1 -1 -5 -5 -2 -3 -3 -8 -9 -8 -4 -2 -2 -6 -8 -8 -4 1 -1 1 2 2
-3 -2 -2 -4 -4 -0 1 2 2 2 4 3 2 1 2 2 3 2 1 1 -1 -1 -0 1 -1 -3 -3 -2 -2 -2 -3 -5 -9 -7 -4 -3 -1 1 -2 -5 -6 -4 -2 -3 -1 0 2
-2 -2 -3 -3 -4 0 0 0 0 0 1 0 -0 0 0 1 1 -0 1 1 1 -0 -1 -3 -2 -5 -2 -1 -2 -2 -2 -4 -9 -3 -4 -3 -1 2 1 1 1 1 -1 -2 -1 2 1
-2 -2 -3 -4 -4 -0 -1 -0 0 0 0 -0 -0 0 -0 1 0 0 -0 1 1 -0 -3 -2 -2 -3 -2 1 1 -1 -2 -5 -7 -5 -4 -1 2 -1 -3 -1 -1 -1 -1 -0 -0 -0 2
-1 -2 -3 -4 -3 -1 -1 -1 -0 0 0 1 0 0 -1 -1 1 1 1 2 1 0 -4 -3 -2 -3 -3 -0 -0 -2 -1 -3 -4 -4 -2 -2 1 -1 -2 -4 1 0 -2 -1 -1 -1 1
-2 -3 -2 -4 -3 -2 -1 -1 -1 -0 0 0 1 -0 -2 -1 1 2 1 1 2 -2 -5 -6 -5 -4 -3 -4 -9 -6 -5 -7 -6 -2 -1 -0 1 -1 0 1 1 1 1 1 0 -0 0
-2 -3 -3 -3 -2 -3 -2 -1 -1 -0 -0 0 1 1 1 0 1 2 1 -0 -1 -3 -3 -5 -7 -3 -5 -8 -7 -6 -7 -7 -4 -4 -2 1 1 0 4 3 3 -0 1 0 -1 -0 -1
-2 -3 -4 -3 -3 -3 -2 -1 -1 -0 -0 0 1 1 2 1 1 1 -0 -1 -2 -4 -4 -5 -6 -5 -7 -6 -2 -1 -1 -2 -1 -3 -1 -2 -0 1 6 5 2 1 -0 0 -0 -0 -2
-2 -4 -4 -3 -3 -3 -1 -1 -1 -0 -0 1 1 1 1 2 2 2 1 1 1 -2 -0 -2 -4 -6 -6 -2 -0 -0 2 0 0 -1 -3 -2 -1 1 2 2 4 0 -2 -3 -3 1 -4
-2 -3 -3 -2 -2 -2 -2 -1 -0 -0 -0 1 1 1 2 1 1 2 1 2 -3 0 1 -1 -3 -4 -5 -1 0 0 0 -3 1 2 1 1 1 2 2 3 1 -3 -3 -3 1 -1 -3
-2 -2 -3 -3 -3 -6 -4 -1 -1 -0 0 1 1 2 1 1 0 -1 -1 -2 -2 -1 1 -1 -1 -2 -0 1 1 1 1 -2 0 1 1 2 2 2 1 2 3 -3 -2 -0 -3 -3 -4
-1 -2 -2 -4 -5 -6 -3 -2 -0 -0 -0 -0 0 3 3 1 1 1 -0 -0 -0 -2 -2 -2 -4 -3 -2 1 0 1 2 1 1 3 -1 1 1 1 1 1 -2 -2 -1 -3 -4 -4 -5

GFSGBSN_850_dewp_147.txt.gz
Dewpoint
9 9 9 9 9 10 10 10 10 10 10 9 9 9 9 9 9 9 9 9 8 8 6 5 2 1 -4 -13 -14 -15 -11 -11 -14 -18 -12 -12 -10 -9 -10 -10 -11 -14 -12 -10 -11 -11 -12
8 8 8 8 8 9 9 9 9 9 9 9 9 9 9 9 9 9 9 9 9 9 8 5 4 1 -9 -11 -8 -10 -11 -14 -16 -16 -10 -10 -9 -9 -9 -9 -9 -9 -9 -10 -12 -11 -11
1 1 1 3 6 7 7 8 8 8 8 9 9 8 8 9 8 9 9 9 9 9 8 8 6 3 -3 0 -6 -9 -12 -16 -16 -12 -11 -9 -9 -9 -11 -9 -10 -10 -10 -12 -13 -12 -13
-3 -3 -2 -1 -0 1 3 4 5 6 7 7 6 6 7 8 9 8 8 8 8 8 8 8 6 3 0 1 -8 -12 -10 -12 -12 -11 -12 -9 -9 -9 -10 -10 -7 -6 -10 -9 -11 -12 -14
-1 -3 -4 -5 -5 -4 -2 -0 0 0 0 1 1 2 6 7 7 8 8 8 8 8 8 7 6 -2 1 2 -3 -7 -10 -11 -9 -9 -9 -8 -8 -9 -8 -6 -6 -7 -6 -8 -11 -15 -15
-2 -6 -9 -12 -13 -11 -11 -7 -5 -4 -3 -1 -1 -0 -0 2 7 7 8 8 7 7 7 6 2 0 2 2 -5 -7 -9 -11 -9 -9 -10 -8 -7 -5 -5 -6 -7 -5 -6 -11 -12 -14 -11
-3 -3 -9 -13 -14 -13 -9 -12 -11 -10 -16 -14 -10 -3 -1 -1 0 5 7 7 6 5 5 6 2 -2 -7 -8 -9 -10 -10 -10 -9 -10 -8 -7 -4 -2 -4 -5 -6 -7 -9 -10 -12 -12 -8
2 -1 -3 -8 -9 -10 -9 -8 -10 -12 -11 -15 -13 -8 -5 -4 -2 2 5 5 6 4 5 5 4 3 1 -6 -6 -10 -11 -10 -9 -8 -9 -8 -3 -6 -5 -5 -5 -6 -8 -8 -9 -10 -7
2 1 -0 -3 -1 -2 -4 -14 -14 -16 -14 -11 -7 -4 -4 -4 -3 2 4 5 4 4 2 2 2 3 4 4 2 -6 -10 -10 -9 -8 -7 -6 -8 -6 -5 -4 -4 -7 -8 -8 -8 -8 -6
1 1 -2 1 1 -4 -6 -12 -17 -16 -15 -0 -2 -3 -4 -1 -3 1 3 4 4 2 1 2 1 0 2 2 -1 3 -9 -10 -9 -7 -7 -6 -8 -8 -6 -4 -5 -5 -9 -8 -6 -6 -4
1 1 1 1 -1 -5 -10 -16 -20 -16 -11 1 3 0 -2 2 0 -1 1 2 1 2 -2 -5 1 -1 0 0 -5 -2 -2 -11 -8 -8 -5 -4 -4 -4 -3 -5 -7 -6 -6 -6 -5 -5 -4
-0 0 0 0 -1 -4 -7 -12 -17 -16 -12 -8 2 2 1 2 2 2 2 1 1 0 2 -1 -1 -2 -1 -2 -6 -10 -8 -11 -10 -9 -9 -7 -8 -7 -6 -7 -8 -7 -6 -2 -2 -2 1
-0 0 -0 0 -1 -4 -6 -8 -12 -15 -13 -9 0 2 1 2 1 1 1 1 1 1 -4 -4 -3 -4 -4 -3 -3 -9 -9 -9 -8 -6 -6 -8 -8 -9 -8 -6 -6 -5 -3 1 3 3 1
-1 -1 0 0 -1 -3 -5 -6 -8 -13 -13 -10 -3 2 1 1 2 1 1 -0 -0 -2 -1 -3 -4 -5 -4 -6 -5 -5 -8 -7 -9 -7 -4 -4 -2 -6 -8 -4 -4 -4 -3 1 2 5 3
-0 -2 -1 -1 -1 -4 -4 -5 -7 -9 -10 -10 -3 0 0 1 1 1 -0 0 -2 -2 -4 -4 -7 -3 -4 -7 -6 -6 -5 -7 -8 -7 -4 -3 -3 -7 -8 -6 -7 -3 -1 -2 1 1 2
-1 -1 -2 -2 -2 -3 -4 -4 -6 -8 -9 -6 -2 -0 0 0 0 2 1 -0 -2 -4 -5 -3 -3 -4 -3 -5 -5 -4 -4 -6 -8 -9 -7 -5 -2 -5 -7 -7 -8 -1 -2 2 2 4 5
-1 -0 -2 -2 -3 -4 -4 -4 -6 -8 -9 0 0 -1 -0 1 0 2 1 -0 -3 -5 -5 -4 -1 -0 -1 -4 -5 -3 -4 -5 -7 -7 -8 -8 -2 -3 -8 -5 -5 -5 -2 0 2 2 3
-4 0 -1 -1 -2 -3 -3 -4 -2 -8 -1 1 0 -0 -0 -0 1 1 1 -2 -4 -4 -5 -4 -1 -1 1 1 -1 -4 -3 -5 -7 -7 -5 -5 -3 -3 -4 -7 -8 -7 -2 0 3 3 2
-4 -2 -3 -3 -2 -3 -3 -3 -1 -4 0 2 0 -1 1 0 -0 -0 -1 -2 -2 -3 -3 -4 -3 -2 -4 0 3 -0 -4 -5 -7 -6 -3 -2 2 1 1 -5 -5 -2 -1 -0 1 -0 2
-4 -2 -3 -3 -2 -2 -3 -3 -1 -2 2 2 0 1 1 1 -0 -2 -2 -1 -1 -2 -2 -3 -2 -3 1 2 1 1 -1 -4 -5 -3 -5 -3 1 1 2 -0 -0 0 0 0 0 2 1
-2 -3 -3 -2 -2 -2 -3 -2 -1 -1 0 2 2 1 -0 2 1 1 -2 -2 -1 -0 -2 -2 -2 -2 -2 0 2 2 0 -2 -3 -1 -1 -2 2 2 -0 -1 1 1 -2 -1 -1 -0 0
-1 -2 -3 -2 -2 -2 -1 -2 -1 -2 0 1 0 -0 -0 -0 1 1 1 -0 -1 -2 -2 -1 -0 -1 -0 2 0 1 -3 -2 -2 -2 -1 0 3 2 1 -1 1 1 -1 -1 -1 0 2
-2 -4 -4 -2 -2 -2 -2 -2 -2 -0 0 1 1 0 0 0 1 1 2 1 0 -1 -1 -2 -2 -1 -1 -1 -1 -2 -4 -4 -3 -0 1 2 3 3 4 -1 0 1 1 0 0 0 1
-3 -4 -4 -2 -2 -3 -3 -2 -1 -3 -1 -1 0 1 0 0 1 0 1 2 1 -0 0 -1 -2 -2 -2 -3 -2 -3 -3 -2 -1 -1 0 3 4 3 4 1 5 -1 0 -0 -1 -0 -1
-4 -4 -2 -1 -3 -3 -3 -2 -1 -2 -2 -1 -1 1 1 0 -0 -0 0 1 -0 -1 0 -1 -3 -2 -3 -2 2 2 3 2 1 1 1 1 1 3 4 3 1 2 -0 -0 -1 -0 -2
-5 -4 -1 -2 -2 -3 -3 -3 -2 -2 -1 -1 -0 0 1 1 -0 -1 2 1 2 1 1 -1 -3 -4 -3 -0 2 3 3 3 2 -0 -2 -1 -1 1 3 3 4 0 -0 -3 -4 0 -2
-5 -2 -1 -2 -3 -3 -2 -3 -3 -1 -1 -1 -0 0 1 2 0 -0 1 2 0 -0 1 -1 -3 -3 -5 2 3 3 3 0 3 2 1 2 1 2 2 3 1 -1 -2 -5 -1 -2 -2
-3 -1 -1 -4 -4 -3 -3 -3 -1 -1 -1 -0 -0 0 1 1 0 2 -0 0 -1 -1 -0 -1 -1 -0 0 2 1 0 0 0 1 0 -0 2 2 2 2 2 3 -2 -3 -1 -3 -3 -3
-1 -1 -3 -4 -3 -2 -2 -1 -1 -1 -1 -1 0 0 1 1 1 2 2 1 -0 -1 -2 -2 -1 -1 -0 1 -0 -0 2 1 0 3 -1 1 -0 1 0 1 -2 -2 -2 -4 -4 -4 -4